TimePST,TemperatureF,Dew PointF,Humidity,Sea Level PressureIn,VisibilityMPH,Wind Direction,Wind SpeedMPH,Gust SpeedMPH,PrecipitationIn,Events,Conditions,WindDirDegrees,DateUTC
12:56 AM,19.9,16.0,85,30.43,10.0,Calm,Calm,-,N/A,,Clear,0,2013-01-20 08:56:00
1:56 AM,18.0,15.1,88,30.43,10.0,Calm,Calm,-,N/A,,Clear,0,2013-01-20 09:56:00
2:56 AM,17.1,12.9,84,30.43,10.0,Calm,Calm,-,N/A,,Clear,0,2013-01-20 10:56:00
3:56 AM,19.0,12.9,77,30.43,10.0,Calm,Calm,-,N/A,,Clear,0,2013-01-20 11:56:00
4:56 AM,18.0,12.9,81,30.44,10.0,ENE,4.6,-,N/A,,Clear,60,2013-01-20 12:56:00
5:56 AM,24.1,14.0,65,30.44,10.0,South,8.1,-,N/A,,Clear,170,2013-01-20 13:56:00
6:56 AM,19.9,12.0,71,30.46,10.0,East,3.5,-,N/A,,Clear,80,2013-01-20 14:56:00
7:56 AM,14.0,10.0,84,30.48,10.0,Calm,Calm,-,N/A,,Clear,0,2013-01-20 15:56:00
8:56 AM,28.0,18.0,66,30.46,10.0,Calm,Calm,-,N/A,,Clear,0,2013-01-20 16:56:00
9:56 AM,36.0,18.0,48,30.45,10.0,NNE,3.5,-,N/A,,Clear,20,2013-01-20 17:56:00
10:56 AM,41.0,17.1,38,30.45,10.0,Calm,Calm,-,N/A,,Clear,0,2013-01-20 18:56:00
11:56 AM,44.1,15.1,31,30.43,10.0,South,6.9,-,N/A,,Clear,170,2013-01-20 19:56:00
12:56 PM,46.9,17.1,30,30.40,10.0,Calm,Calm,-,N/A,,Clear,0,2013-01-20 20:56:00
1:56 PM,48.9,16.0,27,30.38,10.0,Calm,Calm,-,N/A,,Clear,0,2013-01-20 21:56:00
2:56 PM,51.1,16.0,25,30.36,10.0,Calm,Calm,-,N/A,,Clear,0,2013-01-20 22:56:00
3:56 PM,50.0,18.0,28,30.35,10.0,NE,3.5,-,N/A,,Clear,40,2013-01-20 23:56:00
4:56 PM,41.0,19.0,41,30.36,10.0,Calm,Calm,-,N/A,,Clear,0,2013-01-21 00:56:00
5:56 PM,30.9,23.0,72,30.37,10.0,Calm,Calm,-,N/A,,Clear,0,2013-01-21 01:56:00
6:56 PM,27.0,19.9,75,30.39,10.0,Calm,Calm,-,N/A,,Clear,0,2013-01-21 02:56:00
7:56 PM,28.9,21.9,75,30.41,10.0,WSW,4.6,-,N/A,,Clear,250,2013-01-21 03:56:00
8:56 PM,24.1,19.0,81,30.40,10.0,Calm,Calm,-,N/A,,Clear,0,2013-01-21 04:56:00
9:56 PM,21.9,18.0,85,30.39,10.0,Calm,Calm,-,N/A,,Clear,0,2013-01-21 05:56:00
10:56 PM,21.0,17.1,85,30.38,10.0,Calm,Calm,-,N/A,,Clear,0,2013-01-21 06:56:00
11:56 PM,19.0,16.0,88,30.36,10.0,East,3.5,-,N/A,,Clear,90,2013-01-21 07:56:00